Regional Weather Roundup
Issued by NWS Sioux Falls, SD

Home | Current Version | Previous Version | Text Only | Print | Product List | Glossary On
Versions: 1 2 3 4 5 6 7 8 9 10 11 12 13 14 15 16 17 18 19 20 21 22 23 24 25 26 27 28 29 30 31 32 33 34 35 36 37 38 39 40 41 42 43 44 45 46 47 48 49 50
000
ASUS43 KFSD 271910
RWRFSD

WEATHER ROUNDUP FOR SE SOUTH DAKOTA/SW MINNESOTA/NW IOWA
NATIONAL WEATHER SERVICE SIOUX FALLS SD
200 PM CDT MON JUL 27 2015

NOTE: "FAIR" INDICATES FEW OR NO CLOUDS BELOW 12,000 FEET WITH NO
SIGNIFICANT WEATHER AND OR OBSTRUCTIONS TO VISIBILITY.


SDZ038>040-050-052>070-272000-
SOUTHEAST SOUTH DAKOTA

CITY           SKY/WX    TMP DP  RH WIND       PRES   REMARKS
BROOKINGS      SUNNY     86  68  54 S17G23    29.88R
CHAMBERLAIN    MOSUNNY   89  69  50 SE15G22   29.77F
HURON          SUNNY     89  73  59 S16G24    29.78F HX  97
MADISON        FAIR      84  68  58 S22       29.87R
MITCHELL       SUNNY     86  75  69 S24G31    29.81F HX  95
SIOUX FALLS    MOSUNNY   84  68  58 S17G24    29.86S
WINNER         FAIR      91  63  39 SE20G26   29.78F
YANKTON        MOSUNNY   84  73  70 SE13      29.82F
$$

MNZ071-072-080-081-089-090-097-098-272000-
SOUTHWEST MINNESOTA

CITY           SKY/WX    TMP DP  RH WIND       PRES   REMARKS
FAIRMONT       CLOUDY    77  68  73 SE14      29.91F
JACKSON        CLOUDY    81  72  74 SE15G22   29.92F
LUVERNE        SUNNY     86  66  51 S10       29.89R
MARSHALL       MOSUNNY   84  73  70 SE14G21   29.88S
MONTEVIDEO     PTSUNNY   84  75  74 S13G18    29.90R
PIPESTONE      SUNNY     84  72  65 S8        29.89S
REDWOOD FALLS  CLOUDY    81  74  79 SE14G24   29.88F
TRACY          MOSUNNY   84  75  74 SE14      29.89S
WINDOM         PTSUNNY   81  72  74 E12       29.90F
WORTHINGTON    MOSUNNY   81  68  65 SE12      29.91R
$$

IAZ001>003-012>014-020>022-031-032-NEZ013-014-SDZ071-272000-
NORTHWEST IOWA

CITY           SKY/WX    TMP DP  RH WIND       PRES   REMARKS
CHEROKEE       PTSUNNY   79  69  73 S12G23    29.90R
DENISON        CLOUDY    75  68  78 SE13G21   29.90F HAZE
ESTHERVILLE    CLOUDY    76  70  82 SE12      29.93F
LE MARS        MOSUNNY   84  70  61 SE14G23   29.88F
ORANGE CITY    MOSUNNY   84  68  58 S16G22    29.88S
SHELDON        MOSUNNY   82  72  69 E5G14     29.88R
SIOUX CITY     SUNNY     84  70  62 SE18G24   29.88R
SPENCER        CLOUDY    78  68  71 E12       29.90R
STORM LAKE     PTSUNNY   75  72  88 SE9G15    29.92S
$$

ABBREVIATIONS USED IN REMARKS
   TC - TEMPERATURE IN CELSIUS
  WCI - WIND CHILL INDEX
   HX - HEAT INDEX
  VSB - VISIBILITY



USA.gov is the U.S. government's official web portal to all federal, state and local government web resources and services.